Voltar ao catálogo

COSMOS 1191 DEB

AtivoHEO
NORAD 27897·DEBRIS·🇷🇺 Russia

Lançado Jul 2, 1980 de Plesetsk Cosmodrome

Loading…

Próximas Passagens (próximas 24 horas)

TLE

AtualizadoSource: Space-Track

Época: Sep 11, 2026, 14:29 UTC

1 27897U 80057K   26254.60353233 -.00001196  00000-0  16526-2 0  9997
2 27897  62.5215 340.4489 7382938  46.5111 354.6521  1.99249043171709

Acompanhe COSMOS 1191 DEB em tempo real com AllMySat

Download on the App Store